Date String (YYYY-MM-DD hh:mm:ss) UTC,Instrument flags,Ambient pressure (hPa),Sample flow (lpm),Bypass flow (lpm),Sample temperature (°C),Ambient temperature (°C),ASC tube jacket temperature (°C),LED temperature (°C),Box temperature (°C),Sample RH (%),Span deviation,Mass concentration (μg/m³),Mass concentration (μg/m³),Mass concentration (μg/m³)
DateTimeUTC,F1_M11,P_M11,Q1_M11,Q2_M11,T1_M11,T2_M11,T3_M11,T4_M11,T5_M11,U1_M11,ZSPAN_M11,X0_M11,X2_M11,X1_M11
2021-10-29 08:00:00,,0831.4,5.00,0.00,26.0,25.1,00.0,35.2,27.8,12.9,0000.0,0011.75,0002.99,0001.93
2021-10-29 08:01:00,,0831.4,5.00,0.00,26.0,25.1,00.0,35.2,27.8,13.0,0000.0,0012.02,0003.15,0002.03
2021-10-29 08:02:00,,0831.4,5.00,0.00,26.0,25.1,00.0,35.1,27.8,13.0,0000.0,0011.51,0003.25,0002.13
2021-10-29 08:03:00,,0831.4,5.01,0.00,26.0,25.1,00.0,35.1,27.9,13.0,0000.0,0011.79,0003.33,0002.23
2021-10-29 08:04:00,,0831.4,4.99,0.00,26.0,25.1,00.0,35.1,27.9,13.0,0000.0,0012.13,0003.46,0002.37
2021-10-29 08:05:00,,0831.4,5.01,0.00,26.0,25.1,00.0,35.1,27.9,12.9,0000.0,0012.73,0003.56,0002.51
2021-10-29 08:06:00,,0831.4,4.98,0.00,26.0,25.1,00.0,35.1,27.8,13.0,0000.0,0014.17,0003.67,0002.63
2021-10-29 08:07:00,,0831.4,5.01,0.00,26.0,25.1,00.0,35.1,27.8,13.1,0000.0,0014.07,0003.70,0002.63
2021-10-29 08:08:00,,0831.3,5.00,0.00,26.0,25.1,00.0,35.1,27.8,13.1,0000.0,0013.55,0003.67,0002.57
2021-10-29 08:09:00,,0831.3,4.99,0.00,25.9,25.0,00.0,35.1,27.8,13.1,0000.0,0012.38,0003.55,0002.45
2021-10-29 08:10:00,,0831.2,5.01,0.00,25.9,25.0,00.0,35.1,27.7,13.2,0000.0,0011.65,0003.41,0002.30
2021-10-29 08:11:00,,0831.3,4.99,0.00,25.9,25.0,00.0,35.0,27.7,13.2,0000.0,0010.57,0003.26,0002.13
2021-10-29 08:12:00,,0831.2,5.00,0.00,25.9,24.9,00.0,35.0,27.7,13.2,0000.0,0010.15,0003.09,0001.97
2021-10-29 08:13:00,,0831.2,5.00,0.00,25.9,24.9,00.0,35.0,27.7,13.2,0000.0,0009.99,0002.86,0001.82
2021-10-29 08:14:00,,0831.2,5.00,0.00,25.9,25.0,00.0,35.0,27.7,13.2,0000.0,0009.03,0002.53,0001.64
2021-10-29 08:15:00,,0831.2,5.01,0.00,25.9,25.0,00.0,35.0,27.7,13.1,0000.0,0008.44,0002.16,0001.45
2021-10-29 08:16:00,,0831.2,4.99,0.00,25.9,25.0,00.0,35.0,27.7,13.1,0000.0,0007.70,0001.87,0001.27
2021-10-29 08:17:00,,0831.2,4.99,0.00,25.9,25.0,00.0,35.0,27.7,13.1,0000.0,0005.16,0001.53,0001.08
2021-10-29 08:18:00,,0831.2,5.00,0.00,25.9,25.0,00.0,35.0,27.7,13.1,0000.0,0003.39,0001.23,0000.96
2021-10-29 08:19:00,,0831.2,4.99,0.00,25.9,25.0,00.0,35.0,27.7,13.1,0000.0,0002.77,0001.09,0000.89
2021-10-29 08:20:00,,0831.2,5.00,0.00,25.9,25.0,00.0,35.0,27.8,13.1,0000.0,0002.17,0001.02,0000.85
2021-10-29 08:21:00,,0831.2,4.99,0.00,25.9,25.0,00.0,35.0,27.8,13.1,0000.0,0001.98,0001.00,0000.83
2021-10-29 08:22:00,,0831.2,5.00,0.00,25.9,25.0,00.0,35.0,27.7,13.0,0000.0,0001.93,0000.97,0000.81
2021-10-29 08:23:00,,0831.2,5.00,0.00,25.9,25.0,00.0,35.0,27.7,13.1,0000.0,0001.82,0000.95,0000.79
2021-10-29 08:24:00,,0831.2,4.99,0.00,25.8,25.0,00.0,34.9,27.7,13.2,0000.0,0001.39,0000.91,0000.77
2021-10-29 08:25:00,,0831.2,5.00,0.00,25.8,24.9,00.0,34.9,27.6,13.2,0000.0,0001.74,0000.90,0000.76
2021-10-29 08:26:00,,0831.2,5.00,0.00,25.8,24.9,00.0,34.9,27.6,13.2,0000.0,0001.84,0000.93,0000.75
2021-10-29 08:27:00,,0831.2,5.01,0.00,25.8,24.9,00.0,34.9,27.6,13.2,0000.0,0001.97,0000.96,0000.77
2021-10-29 08:28:00,,0831.1,5.00,0.00,25.8,24.9,00.0,34.9,27.6,13.2,0000.0,0002.68,0001.00,0000.79
2021-10-29 08:29:00,,0831.1,5.00,0.00,25.8,24.9,00.0,34.9,27.6,13.2,0000.0,0002.91,0001.04,0000.81
2021-10-29 08:30:00,,0831.1,5.01,0.00,25.8,24.9,00.0,34.9,27.6,13.2,0000.0,0003.15,0001.09,0000.83
2021-10-29 08:31:00,,0831.0,4.99,0.00,25.8,24.9,00.0,34.9,27.6,13.2,0000.0,0003.33,0001.17,0000.86
2021-10-29 08:32:00,,0831.1,5.01,0.00,25.8,24.9,00.0,34.9,27.6,13.3,0000.0,0003.42,0001.23,0000.89
2021-10-29 08:33:00,,0831.0,5.00,0.00,25.8,24.9,00.0,34.9,27.6,13.3,0000.0,0003.53,0001.27,0000.91
2021-10-29 08:34:00,,0831.0,5.00,0.00,25.7,24.9,00.0,34.9,27.6,13.3,0000.0,0003.63,0001.30,0000.93
2021-10-29 08:35:00,,0831.0,5.00,0.00,25.8,24.9,00.0,34.9,27.6,13.3,0000.0,0003.63,0001.30,0000.93
2021-10-29 08:36:00,,0831.0,5.01,0.00,25.8,24.9,00.0,34.9,27.6,13.3,0000.0,0003.30,0001.31,0000.94
2021-10-29 08:37:00,,0831.0,5.01,0.00,25.8,24.9,00.0,34.8,27.6,13.3,0000.0,0003.23,0001.29,0000.95
2021-10-29 08:38:00,,0831.0,4.99,0.00,25.8,24.9,00.0,34.8,27.6,13.3,0000.0,0003.24,0001.30,0000.95
2021-10-29 08:39:00,,0831.0,5.02,0.00,25.8,24.9,00.0,34.8,27.6,13.3,0000.0,0002.55,0001.30,0000.95
2021-10-29 08:40:00,,0831.0,4.99,0.00,25.8,24.9,00.0,34.8,27.6,13.3,0000.0,0002.61,0001.37,0000.96
2021-10-29 08:41:00,,0831.0,5.01,0.00,25.8,24.9,00.0,34.8,27.6,13.2,0000.0,0002.61,0001.41,0000.97
2021-10-29 08:42:00,,0831.0,5.00,0.00,25.8,25.0,00.0,34.8,27.7,13.2,0000.0,0002.84,0001.39,0000.98
2021-10-29 08:43:00,,0831.0,4.98,0.00,25.8,25.0,00.0,34.9,27.7,13.2,0000.0,0002.92,0001.39,0000.97
2021-10-29 08:44:00,,0831.1,5.01,0.00,25.8,25.0,00.0,34.9,27.7,13.2,0000.0,0004.46,0001.38,0000.97
2021-10-29 08:45:00,,0831.0,5.00,0.00,25.8,25.0,00.0,34.9,27.7,13.2,0000.0,0005.12,0001.38,0000.97
2021-10-29 08:46:00,,0831.1,5.00,0.00,25.8,25.0,00.0,34.9,27.7,13.2,0000.0,0005.27,0001.44,0000.97
2021-10-29 08:47:00,,0831.0,5.01,0.00,25.8,25.0,00.0,34.8,27.7,13.2,0000.0,0005.27,0001.45,0000.99
2021-10-29 08:48:00,,0831.0,4.99,0.00,25.8,25.0,00.0,34.9,27.7,13.1,0000.0,0005.25,0001.47,0001.00
2021-10-29 08:49:00,,0831.0,5.01,0.00,25.8,25.0,00.0,34.9,27.7,13.1,0000.0,0005.18,0001.45,0000.99
2021-10-29 08:50:00,,0831.0,4.99,0.00,25.8,25.0,00.0,34.9,27.8,13.1,0000.0,0005.18,0001.46,0000.99
2021-10-29 08:51:00,,0831.0,5.01,0.00,25.8,25.0,00.0,34.9,27.7,13.1,0000.0,0004.87,0001.36,0000.97
2021-10-29 08:52:00,,0831.0,4.99,0.00,25.8,25.0,00.0,34.9,27.7,13.1,0000.0,0005.01,0001.32,0000.95
2021-10-29 08:53:00,,0831.1,4.99,0.00,25.8,25.0,00.0,34.9,27.7,13.1,0000.0,0004.73,0001.29,0000.93
2021-10-29 08:54:00,,0831.0,5.02,0.00,25.8,24.9,00.0,34.9,27.6,13.1,0000.0,0004.69,0001.29,0000.92
2021-10-29 08:55:00,,0831.0,5.00,0.00,25.8,25.0,00.0,34.9,27.7,13.1,0000.0,0002.97,0001.26,0000.89
2021-10-29 08:56:00,,0831.0,5.00,0.00,25.9,25.0,00.0,34.9,27.7,13.1,0000.0,0002.31,0001.23,0000.87
2021-10-29 08:57:00,,0830.9,4.99,0.00,25.9,25.0,00.0,34.9,27.7,13.1,0000.0,0002.20,0001.20,0000.86
2021-10-29 08:58:00,,0830.9,5.01,0.00,25.9,25.0,00.0,34.9,27.7,13.1,0000.0,0002.13,0001.15,0000.83
2021-10-29 08:59:00,,0830.9,5.00,0.00,25.9,25.0,00.0,34.9,27.7,13.0,0000.0,0002.09,0001.11,0000.80
